#timestamp,LO_Frequency,Hit,StdDev 
1515567615.4,286046996.6,Y
1515567635.3,286046999.5,P
1515567655.1,286046998.9,P
1515567675.9,286046997.2,P
1515567695.7,286046996.7,Y
1515567715.5,286047000.5,P
1515567735.4,286047001.2,N
1515567755.2,286047000.6,N
1515567775.1,286047004.1,Y
1515567776.0,286047004.1,P
1515567795.8,286047004.4,N
1515567815.6,286047004.4,N
1515567835.5,286047003.2,N
1515567855.3,286047004.4,N
1515567875.1,286047001.7,N
1515567895.9,286047001.9,N
1515567915.7,286047001.0,N
1515567935.6,286047000.1,N
1515567955.4,286047000.2,N
1515567975.2,286047002.2,N
1515567995.1,286047002.4,N
1515567996.0,286047002.4,N
1515568015.8,286047002.6,N
1515568035.6,286046999.8,N
1515568055.5,286047001.0,N
1515568075.3,286047000.0,N
1515568095.2,286046998.4,N
1515568115.9,286046998.1,N
1515568135.7,286046998.2,N
1515568155.6,286046998.2,N
1515568175.4,286046998.6,N
1515568195.2,286047000.4,N
1515568215.1,286047001.5,N
1515568216.0,286047001.5,N
1515568235.8,286047000.3,N
1515568255.7,286046999.9,N
1515568275.5,286046999.7,N
1515568295.3,286047002.8,N
1515568315.2,286047002.4,N
1515568335.0,286047000.1,N
1515568335.9,286047000.1,N
1515568355.7,286047002.2,N
1515568375.6,286047001.6,N
1515568395.4,286047002.5,N
1515568415.3,286047002.1,N
1515568435.1,286047002.8,N
1515568455.8,286047000.8,N
1515568475.7,286046996.9,N
1515568495.5,286046999.0,N
1515568515.3,286046998.6,N
1515568535.2,286047002.7,N
1515568555.0,286047001.3,N
1515568555.9,286047001.3,N
1515568575.8,286047004.3,N
1515568595.6,286047003.9,N
1515568615.4,286047002.1,N
1515568635.3,286047004.3,N
1515568655.1,286047000.2,N
1515568675.9,286047000.8,N
1515568695.7,286047000.2,N
1515568715.5,286047001.6,N
1515568735.4,286047001.9,N
1515568755.2,286047002.4,N
1515568775.0,286047001.3,N
1515568806.0,286047003.1,E
1515568815.9,286047002.0,N
1515568835.7,286047002.3,P
1515568855.6,286047001.5,P
1515568875.4,286047001.5,Y
1515568895.2,286047001.7,P
1515568915.1,286047001.4,P
1515568916.0,286047001.4,P
1515568935.8,286047002.8,Y
1515568955.7,286047001.0,P
1515568975.5,286047000.8,N
1515568995.3,286046999.0,N
1515569015.2,286046996.8,Y
1515569035.0,286046998.9,P
1515569035.9,286046998.9,N
1515569055.7,286046998.8,N
1515569075.6,286046999.2,N
1515569095.4,286046996.5,Y
1515569115.3,286046997.0,P
1515569135.1,286046999.0,N
1515569136.0,286046999.0,N
1515569155.8,286046998.2,N
1515569175.7,286046999.3,N
1515569195.5,286046997.4,Y
1515569215.4,286046999.5,P
1515569235.2,286046999.4,N
1515569255.0,286046999.6,N
1515569255.9,286046999.6,N
1515569275.8,286046996.7,Y
1515569295.6,286046998.3,P
1515569315.4,286046999.8,N
1515569335.3,286047002.8,P
1515569355.1,286047002.7,N
1515569375.9,286047002.2,N
1515569395.7,286046999.7,N
1515569415.5,286047000.7,N
1515569435.4,286046998.4,N
1515569455.2,286047001.1,N
1515569475.0,286046996.6,N
1515569475.9,286046996.6,N
1515569495.8,286046995.3,N
1515569515.6,286046997.3,N
1515569535.5,286046998.9,N
1515569555.3,286046998.9,N
1515569575.1,286047000.3,N
1515569595.9,286047001.8,N
1515569615.7,286047001.8,N
1515569635.6,286047001.6,N
1515569655.4,286046999.8,N
1515569675.2,286047000.1,N
1515569695.1,286046999.0,N
1515569696.0,286046999.0,N
1515569715.8,286046999.3,N
1515569735.6,286046998.1,N
1515569755.5,286046999.9,N
1515569775.3,286047002.5,N
1515569795.2,286047001.9,N
1515569815.9,286047000.7,N
1515569835.7,286047000.7,N
1515569855.6,286046999.7,N
1515569875.4,286047001.8,N
1515569895.2,286047002.0,N
1515569915.1,286047000.0,N
1515569916.0,286047000.0,N
1515569935.8,286047000.0,N
1515569955.7,286047002.1,N
1515569975.5,286047003.8,N
1515569995.3,286047003.7,N
1515570015.2,286047001.8,N
1515570035.0,286047000.0,N
1515570035.9,286047000.0,N
1515570055.8,286047000.3,N
1515570075.6,286047002.6,N
1515570095.4,286046999.7,N
1515570115.3,286047002.7,N
1515570135.1,286047002.2,N
1515570155.8,286046999.9,N
1515570175.7,286047002.3,N
1515570195.5,286046999.7,N
1515570215.4,286047002.0,N
1515570235.2,286047002.2,N
1515570255.0,286046999.9,N
1515570255.9,286046999.9,N
1515570275.8,286046999.4,N
1515570295.6,286046998.4,N
1515570315.4,286046998.2,N
1515570335.3,286047001.2,N
1515570355.1,286047000.7,N
1515570375.9,286047001.1,N
1515570395.7,286047000.7,N
1515570415.5,286047000.5,N
1515570435.4,286047002.4,N
1515570455.2,286047001.8,N
1515570475.0,286047000.0,N
1515570476.0,286047000.0,N
1515570495.8,286047001.1,N
1515570515.6,286047011.9,Y
1515570535.5,286047000.2,P
1515570555.3,286047003.9,P
1515570575.1,286047002.1,N
1515570595.9,286047001.5,N
1515570615.7,286047002.2,N
1515570635.6,286047003.9,Y
1515570655.4,286047000.5,P
1515570675.2,286046999.1,N
1515570695.1,286046999.0,N
1515570696.0,286046999.0,N
1515570715.8,286046996.7,N
1515570735.6,286046996.5,N
1515570755.5,286046997.5,N
1515570775.3,286046998.3,N
1515570795.2,286046998.5,N
1515570815.9,286046999.4,N
1515570835.7,286046999.5,N
1515570855.6,286046999.3,N
1515570875.4,286046996.6,N
1515570895.2,286046997.8,N
1515570915.1,286046996.9,N
1515570916.0,286046996.9,N
1515570935.8,286046994.9,Y
1515570955.7,286046998.0,P
1515570975.5,286046997.3,P
1515570995.3,286046996.6,P
1515571015.2,286046996.5,Y
1515571035.0,286046999.8,P
1515571035.9,286046999.8,N
1515571055.8,286047002.7,N
1515571075.6,286047002.7,N
1515571095.4,286047000.0,N
1515571115.3,286047000.9,N
1515571135.1,286047001.6,N
1515571155.8,286047004.1,N
1515571175.7,286047004.1,N
1515571195.5,286047003.2,N
